This demonstration page uses our WeatherBlox Daily Observations layout. Learn more.

Left ArrowRight Arrow

44.31136, -96.79839

Hourly Observations for May 11, 2022

Temp ( °F °C ) Dew Point ( °F °C ) Humidity (%) Winds ( mph kmh ) Pressure ( in mb ) Visibility ( mi km ) Precip ( " mm )
12:56 am 00:56 Clear 57 13.9 44 6.7 62 62 NE 7 11 30.14 1021 10 16 0.00 0.00
1:56 am 01:56 Clear 56 13.3 43 6.1 62 62 NE 9 15 30.12 1020 10 16 0.00 0.00
2:56 am 02:56 Mostly Clear 59 15 42 5.6 54 54 NE 12 19 30.11 1020 10 16 0.00 0.00
3:56 am 03:56 Mostly Cloudy 60 15.6 41 5 50 50 NE 13 20 30.11 1020 10 16 0.00 0.00
4:56 am 04:56 Cloudy 60 15.6 40 4.4 47 47 ENE 17 28 30.12 1020 10 16 0.00 0.00
5:56 am 05:56 Cloudy 60 15.6 40 4.4 47 47 ENE 10 17 30.13 1020 10 16 0.00 0.00
6:56 am 06:56 Cloudy 60 15.6 41 5 50 50 ENE 16 26 30.09 1019 10 16 0.00 0.00
7:56 am 07:56 Cloudy 61 16.1 41 5 48 48 E 18 30 30.07 1018 10 16 0.00 0.00
8:56 am 08:56 Cloudy with Nearby Thunderstorms 61 16.1 42 5.6 50 50 E 15 24 30.07 1018 10 16 0.00 0.00
9:40 am 09:40 Partly Cloudy with Nearby Thunderstorms 57 14 46 8 67 67 ENE 17 28 30.00 1016 10 16 0.06 1.52
9:44 am 09:44 Partly Cloudy with Nearby Thunderstorms 57 14 46 8 67 67 ENE 17 28 30.00 1016 10 16 0.06 1.52
9:56 am 09:56 Partly Cloudy with Thunderstorms 56 13.3 48 8.9 75 75 E 16 26 30.04 1017 7 11 0.08 2.03
10:18 am 10:18 Mostly Cloudy with Nearby Thunderstorms 55 13 48 9 77 77 ESE 12 19 30.03 1017 10 16 0.01 0.25
10:47 am 10:47 Cloudy with Nearby Thunderstorms 55 13 50 10 82 82 Calm 30.00 1016 10 16 0.02 0.51
10:50 am 10:50 Mostly Cloudy with Nearby Thunderstorms 55 13 50 10 82 82 SE 6 9 30.00 1016 10 16 0.02 0.51
10:56 am 10:56 Mostly Cloudy with Nearby Thunderstorms 56 13.3 51 10.6 84 84 ESE 10 17 30.04 1017 10 16 0.02 0.51
11:21 am 11:21 Cloudy with Nearby Thunderstorms 57 14 55 13 94 94 SSE 18 30 30.02 1016 8 13 0.04 1.02
11:33 am 11:33 Cloudy with Thunderstorms 57 14 55 13 94 94 SE 24 39 29.97 1015 3 4 0.23 5.84
11:41 am 11:41 Cloudy with Thunderstorms 59 15 55 13 88 88 ESE 24 39 29.95 1014 10 16 0.24 6.10
11:56 am 11:56 Cloudy with Nearby Thunderstorms 59 15 57 13.9 93 93 ESE 29 46 30.02 1017 3 5 0.32 8.13
12:25 pm 12:25 Mostly Cloudy with Nearby Thunderstorms 63 17 61 16 94 94 ESE 20 31 29.93 1013 10 16 0.01 0.25
12:29 pm 12:29 Cloudy with Nearby Thunderstorms 63 17 59 15 88 88 SE 17 28 29.93 1013 9 14 0.01 0.25
12:47 pm 12:47 Cloudy with Light Rain 63 17 61 16 94 94 SE 20 31 29.93 1013 5 8 0.04 1.02
12:56 pm 12:56 Cloudy with Light Rain 61 16.1 60 15.6 97 97 ESE 24 39 29.99 1016 4 6 0.04 1.02
1:13 pm 13:13 Cloudy with Mist and Fog 63 17 61 16 94 94 ESE 22 35 29.92 1013 6 10 0.00 0.00
1:56 pm 13:56 Cloudy 64 17.8 59 15 84 84 E 25 41 29.97 1015 9 14 0.00 0.00
2:56 pm 14:56 Mostly Cloudy with Mist and Fog 67 19.4 63 17.2 87 87 E 18 30 29.94 1014 6 10 0.00 0.00
3:06 pm 15:06 Hazy 68 20 63 17 83 83 ESE 20 31 29.87 1011 6 10 0.00 0.00
3:13 pm 15:13 Mostly Cloudy with Haze 70 21 64 18 83 83 E 20 31 29.84 1011 5 8 0.00 0.00
3:40 pm 15:40 Mostly Cloudy with Mist and Fog 66 19 63 17 88 88 E 13 20 29.82 1010 6 10 0.00 0.00
3:56 pm 15:56 Partly Cloudy with Light Rain 67 19.4 63 17.2 87 87 ESE 14 22 29.93 1014 6 10 0.00 0.00
4:03 pm 16:03 Mostly Cloudy with Thunderstorms 66 19 63 17 88 88 E 13 20 29.85 1011 6 10 0.01 0.25
4:56 pm 16:56 Cloudy with Light Rain 65 18.3 63 17.2 93 93 E 16 26 29.90 1012 4 6 0.14 3.56
5:47 pm 17:47 Cloudy with Light Rain 63 17 61 16 94 94 SE 14 22 29.90 1012 6 10 0.04 1.02
5:56 pm 17:56 Cloudy with Rain 62 16.7 60 15.6 93 93 SE 14 22 29.95 1014 7 11 0.05 1.27
6:56 pm 18:56 Cloudy with Light Rain 63 17.2 61 16.1 93 93 SE 10 17 29.88 1012 10 16 0.08 2.03
7:14 pm 19:14 Mostly Cloudy with Light Rain 63 17 61 16 94 94 S 3 6 29.83 1010 10 16 0.00 0.00
7:56 pm 19:56 Sunny 63 17.2 62 16.7 97 97 NE 7 11 29.92 1013 10 16 0.00 0.00
8:56 pm 20:56 Clear 63 17.2 61 16.1 93 93 ESE 6 9 29.93 1014 10 16 0.00 0.00
9:06 pm 21:06 Partly Cloudy 63 17 61 16 94 94 SSE 6 9 29.89 1012 10 16 0.00 0.00
9:15 pm 21:15 Mostly Cloudy 63 17 61 16 94 94 SE 7 11 29.89 1012 10 16 0.00 0.00
9:46 pm 21:46 Partly Cloudy 63 17 61 16 94 94 ENE 5 7 29.90 1012 10 16 0.00 0.00
9:56 pm 21:56 Clear 62 16.7 60 15.6 93 93 ENE 5 7 29.96 1015 10 16 0.00 0.00
10:08 pm 22:08 Partly Cloudy 63 17 61 16 94 94 ENE 7 11 29.90 1012 10 16 0.00 0.00
10:11 pm 22:11 Mostly Cloudy 63 17 61 16 94 94 ENE 9 15 29.90 1012 10 16 0.00 0.00
10:40 pm 22:40 Cloudy with Mist and Fog 63 17 63 17 100 100 ENE 14 22 29.89 1012 4 6 0.00 0.00
10:56 pm 22:56 Cloudy with Mist and Fog 63 17.2 62 16.7 97 97 ENE 14 22 29.95 1014 2 3 0.00 0.00
11:03 pm 23:03 Cloudy with Mist and Fog 63 17 63 17 100 100 E 15 24 29.89 1012 1 2 0.00 0.00
11:33 pm 23:33 Cloudy with Mist and Fog 63 17 63 17 100 100 E 9 15 29.90 1012 3 5 0.00 0.00
11:56 pm 23:56 Partly Cloudy 62 16.7 61 16.1 96 96 E 10 17 29.95 1014 9 14 0.00 0.00

Powered by AerisWeather